Regional Weather Roundup
Issued by NWS

Home | Current Version | Previous Version | Text Only | Print | Product List | Glossary On
Versions: 1 2 3 4 5 6 7 8 9 10 11 12 13 14 15 16 17 18 19 20 21 22 23 24 25 26 27 28 29 30 31 32 33 34 35 36 37 38 39 40 41 42 43 44 45 46 47 48 49 50
000
ASUS43 KTOP 021059
RWRKS

WEATHER ROUNDUP FOR KANSAS
NATIONAL WEATHER SERVICE GOODLAND KS
600 AM CDT WED SEP 02 2015

NOTE:  "FAIR" INDICATES FEW OR NO CLOUDS BELOW 12,000 FEET WITH NO
SIGNIFICANT WEATHER AND/OR OBSTRUCTIONS TO VISIBILITY.

KSZ001>006-013>018-027>032-041>047-021200-
NORTHWEST KANSAS

CITY           SKY/WX    TMP DP  RH WIND       PRES   REMARKS
GOODLAND       CLEAR     65  56  72 SW7       29.97S
HAYS           CLEAR     73  55  53 S13       29.92F
HILL CITY      PTCLDY    73  57  57 SW8       29.90F
RUSSELL        CLEAR     75  60  59 S14       29.91S
$$

KSZ061>065-074>080-084>089-021200-
SOUTHWEST KANSAS

CITY           SKY/WX    TMP DP  RH WIND       PRES   REMARKS
DODGE CITY     CLEAR     69  57  65 S12       29.98S
ELKHART          N/A     68  55  63 SW12        N/A
GARDEN CITY    CLEAR     63  56  78 S6        29.97S
GREAT BEND     CLEAR     73  59  60 S16       29.94S
LIBERAL        PTCLDY    72  54  53 S13       30.00S
$$

KSZ066>073-081>083-090>101-021200-
SOUTHEAST KANSAS

CITY           SKY/WX    TMP DP  RH WIND       PRES   REMARKS
CHANUTE        PTCLDY    71  66  84 S8        30.02R
COFFEYVILLE    CLEAR     71  67  87 S6        30.02S
HUTCHINSON     PTCLDY    75  62  64 S12       29.97F
NEWTON         CLEAR     73  59  60 S15       30.01S
PARSONS        PTCLDY    70  67  90 S6        30.04R
WICHITA INTL   MOCLDY    72  63  73 S10       29.99R
WICHITA JABRA  CLEAR     74  63  68 S12       29.99S
WINFIELD       CLEAR     73  64  73 S12       30.02R
$$

KSZ007>012-019>026-033>040-048>060-102>105-021200-
NORTHEAST KANSAS

CITY           SKY/WX    TMP DP  RH WIND       PRES   REMARKS
CONCORDIA      CLEAR     74  63  68 S16       29.91S
EMPORIA        PTCLDY    71  65  81 S12       29.98S
LAWRENCE       PTCLDY    71  66  84 SE7       29.98R
MANHATTAN      MOCLDY    78  65  63 SW13      29.93S
OLATHE IND     MOCLDY    70  66  87 S12       30.01R
OLATHE EXE     PTCLDY    69  66  90 S7        30.00S
SALINA         MOCLDY    78  62  57 S13       29.92F
TOPEKA BILLARD PTCLDY    74  66  76 S7        29.96S
TOPEKA FORBES  MOCLDY    74  66  76 S12       29.97R
$$



USA.gov is the U.S. government's official web portal to all federal, state and local government web resources and services.